Location: Bushrod
(6.3500°N, 10.7833°W)
Time: 16:32:35
(UTC+00:00)

Cosmos 1048 Rocket - Pass Details

Date: 17 September 2019
Orbit: 743 x 792 km, 74.0° (Epoch: 14 October)

Event Time Altitude Azimuth Distance (km) Brightness Sun altitude
Rises 18:55:33 0° 346° (NNW) 3,231 7.5 -4.2°
Reaches altitude 10° 18:57:54 10° 346° (NNW) 2,313 6.7 -4.8°
Maximum altitude 19:03:10 86° 259° (WSW) 786 4.2 -6.1°
Drops below altitude 10° 19:08:31 10° 169° (S) 2,343 6.4 -7.4°
Sets 19:10:55 0° 169° (S) 3,277 7.1 -8.0°
